Weather in Nushtaykino

Russia / Orenburg Oblast     53°36′28″N   52°13′42″E
temp.,
°C
wind,
m/s
gust,
m/s
humid.,
%
clouds,
%
prec.,
mm/h
press.,
hPa
HPBL,
m
23 october, sat
sat2323:00+11sw81775100 0.0 1007704
02:00+10wsw714815 0.0 1008533
05:00+9sw613884 0.0 1009375
08:00+7sw512935 0.0 1010318
11:00+11sw7137613 0.0 1012567
14:00+14wsw8146042 0.0 10121348
17:00+13wsw7126145 0.1 10121350
20:00+10sw4116896 0.0 1014277
24 october, sun
sun2423:00+9ssw3463100 0.0 101478
02:00+9wsw2667100 0.2 1013180
05:00+8ese2695100 4.5 1010302
08:00+7n4690100 4.0 1009281
11:00+7w5992100 4.3 1011611
14:00+9w586785 0.1 10131150
17:00+9w57605 0.1 1013929
20:00+5wsw337622 0.0 101546
25 october, mon
mon2523:00+4wsw2381100 0.0 101532
02:00+4w2282100 0.0 101517
05:00+4s1179100 0.0 101510
08:00+4s2280100 0.0 101530
11:00+6wsw347263 0.0 1015378
14:00+7w5562100 0.1 10141140
17:00+4nw5883100 0.4 1016855
20:00+3nnw61195100 0.1 1019765
26 october, tue
tue2623:00+1n6108141 0.1 1022755
02:00−1nnw410775 0.0 1024428
05:00−2nw368487 0.0 1026157
08:00−2wnw228125 0.0 102736
11:00+1wsw45615 0.0 1027411
14:00+4wsw684484 0.0 1026897
17:00+4sw61145100 0.0 1025852
20:00+3sw6135099 0.0 1025592
27 october, wed
wed2723:00+2sw6125888 0.0 1024429
02:000sw4107024 0.0 1025238
05:00−1sw39795 0.0 1024197
08:00−2sw398338 0.0 1024208
11:00+3wsw696187 0.0 1024392
14:00+6wsw7104978 0.0 1023632
17:00+7sw61249100 0.0 1022667
20:00+5sw61452100 0.0 1022456